This is the latest recevied weather packets stored in our database for station/object K9VSK-9. If no packets are shown the sender has not sent any weather packets the latest 10 day(s).
| Time | Temp. | Humidity | Pressure | Rain* | Wind** | Luminosity | Snow |
|---|---|---|---|---|---|---|---|
| 1787972499 | 18.89° C | 90% | 1020.3 hPa | 0 mm | - | - | - |
| 1787972200 | 18.89° C | 89% | 1020.2 hPa | 0 mm | - | - | - |
| 1787971899 | 19.44° C | 89% | 1020.4 hPa | 0 mm | - | - | - |
| 1787971598 | 19.44° C | 89% | 1020.4 hPa | 0 mm | - | - | - |
| 1787971299 | 19.44° C | 88% | 1020.3 hPa | 0 mm | - | - | - |
| 1787970999 | 19.44° C | 88% | 1020.3 hPa | 0 mm | - | - | - |
| 1787970698 | 19.44° C | 88% | 1020.3 hPa | 0 mm | - | - | - |
| 1787970398 | 19.44° C | 87% | 1020.3 hPa | 0 mm | - | - | - |
| 1787970098 | 19.44° C | 87% | 1020.2 hPa | 0 mm | - | - | - |
| 1787969797 | 20° C | 87% | 1020.2 hPa | 0 mm | - | - | - |
| 1787969497 | 20° C | 87% | 1020.3 hPa | 0 mm | - | - | - |
| 1787969197 | 20° C | 87% | 1020.2 hPa | 0 mm | - | - | - |
| 1787968897 | 20° C | 86% | 1020.1 hPa | 0 mm | - | - | - |
| 1787968596 | 20° C | 86% | 1020.2 hPa | 0 mm | - | - | - |
| 1787968296 | 20.56° C | 85% | 1019.9 hPa | 0 mm | - | - | - |
| 1787967995 | 20.56° C | 85% | 1019.8 hPa | 0 mm | - | - | - |
| 1787967694 | 21.11° C | 83% | 1019.8 hPa | 0 mm | - | - | - |
| 1787967395 | 21.11° C | 82% | 1019.7 hPa | 0 mm | - | - | - |
| 1787967095 | 21.11° C | 82% | 1019.7 hPa | 0 mm | - | - | - |
| 1787966794 | 21.11° C | 82% | 1019.7 hPa | 0 mm | - | - | - |
| 1787966494 | 21.67° C | 82% | 1019.7 hPa | 0 mm | - | - | - |
| 1787966194 | 22.22° C | 78% | 1019.7 hPa | 0 mm | - | - | - |
| 1787965894 | 22.22° C | 74% | 1019.6 hPa | 0 mm | - | - | - |
| 1787965594 | 22.78° C | 75% | 1019.5 hPa | 0 mm | - | - | - |
| 1787965293 | 22.78° C | 77% | 1019.5 hPa | 0 mm | - | - | - |
* Rain latest hour (hover to see other rain measurements)
** Current wind speed in m/s (hover to see current wind gust speed)